Location: Unspecified
(0.0000°N, 0.0000°E)
Time: 11:37:21
(UTC+02:00)

Cosmos 773 Rocket - Visible Passes

Search period start: 22 October 2014 00:00
Search period end: 31 October 2014 23:00
Orbit: 746 x 779 km, 74.1° (Epoch: 21 October)

Date Brightness Start Highest point End Pass type
(mag) Time Alt. Az. Time Alt. Az. Time Alt. Az.
22 Oct 4.0 07:17:50 10° SSW 07:23:03 85° WNW 07:28:17 10° N visible
23 Oct 5.3 06:39:26 10° S 06:44:22 43° ESE 06:49:19 10° NNE visible
24 Oct 6.6 06:01:53 10° SSE 06:05:41 20° ESE 06:09:29 10° NE visible
25 Oct 4.2 07:03:36 10° SSW 07:08:37 49° WNW 07:13:40 10° N visible
26 Oct 4.1 05:24:44 10° S 05:29:56 76° ESE 05:35:10 10° NNE visible
27 Oct 5.6 04:46:32 10° SSE 04:51:15 35° ESE 04:55:58 10° NE visible
28 Oct 6.7 04:09:23 10° SE 04:12:33 16° ESE 04:15:43 10° ENE visible
28 Oct 4.8 05:49:44 10° SW 05:54:11 29° WNW 05:58:40 10° NNW visible
29 Oct 3.9 05:10:20 10° SSW 05:15:30 63° WNW 05:20:41 10° N visible
30 Oct 5.2 04:31:39 10° S 04:39:05 32° NE 04:41:58 10° NNE visible
